Location: Poughquag
(41.6090°N, 73.6820°W)
Time: 20:49:34
(UTC-04:00)

STARLINK-1343 - Pass Details

Date: 29 May 2020
Orbit: 378 x 381 km, 53.0° (Epoch: 04 July)

Event Time Altitude Azimuth Distance (km) Brightness Sun altitude
Rises 04:40:30 0° 300° (WNW) 2,253 6.5 -7.6°
Reaches altitude 10° 04:44:01 10° 342° (NNW) 1,401 6.0 -7.1°
Maximum altitude 04:44:46 11° 356° (N) 1,364 6.1 -6.9°
Drops below altitude 10° 04:45:32 10° 10° (N) 1,401 6.5 -6.8°
Sets 04:49:03 0° 52° (NE) 2,255 9.6 -6.3°
